Year,Month,Day,Hour,Minute,Value (Times are PST for barometer in hPa)
2017,04,07,00,00,996.11
2017,04,07,00,01,996.11
2017,04,07,00,02,996.11
2017,04,07,00,03,996.07
2017,04,07,00,04,996.14
2017,04,07,00,05,996.17
2017,04,07,00,06,996.21
2017,04,07,00,07,996.17
2017,04,07,00,08,996.17
2017,04,07,00,09,996.21
2017,04,07,00,10,996.17
2017,04,07,00,11,996.21
2017,04,07,00,12,996.14
2017,04,07,00,13,996.14
2017,04,07,00,14,996.11
2017,04,07,00,15,996.07
2017,04,07,00,16,996.01
2017,04,07,00,17,996.01
2017,04,07,00,18,995.97
2017,04,07,00,19,995.90
2017,04,07,00,20,995.90
2017,04,07,00,21,995.84
2017,04,07,00,22,995.87
2017,04,07,00,23,995.84
2017,04,07,00,24,995.84
2017,04,07,00,25,995.77
2017,04,07,00,26,995.70
2017,04,07,00,27,995.70
2017,04,07,00,28,995.67
2017,04,07,00,29,995.57
2017,04,07,00,30,995.53
2017,04,07,00,31,995.53
2017,04,07,00,32,995.50
2017,04,07,00,33,995.46
2017,04,07,00,34,995.43
2017,04,07,00,35,995.43
2017,04,07,00,36,995.46
2017,04,07,00,37,995.46
2017,04,07,00,38,995.43
2017,04,07,00,39,995.36
2017,04,07,00,40,995.36
2017,04,07,00,41,995.36
2017,04,07,00,42,995.36
2017,04,07,00,43,995.36
2017,04,07,00,44,995.29
2017,04,07,00,45,995.26
2017,04,07,00,46,995.23
2017,04,07,00,47,995.19
2017,04,07,00,48,995.16
2017,04,07,00,49,995.16
2017,04,07,00,50,995.19
2017,04,07,00,51,995.19
2017,04,07,00,52,995.19
2017,04,07,00,53,995.16
2017,04,07,00,54,995.09
2017,04,07,00,55,995.12
2017,04,07,00,56,995.06
2017,04,07,00,57,995.06
2017,04,07,00,58,995.06
2017,04,07,00,59,995.02
2017,04,07,01,00,995.02
2017,04,07,01,01,994.99
2017,04,07,01,02,995.02
2017,04,07,01,03,994.92
2017,04,07,01,04,994.85
2017,04,07,01,05,994.85
2017,04,07,01,06,994.79
2017,04,07,01,07,994.75
2017,04,07,01,08,994.68
2017,04,07,01,09,994.65
2017,04,07,01,10,994.62
2017,04,07,01,11,994.65
2017,04,07,01,12,994.62
2017,04,07,01,13,994.62
2017,04,07,01,14,994.58
2017,04,07,01,15,994.62
2017,04,07,01,16,994.62
2017,04,07,01,17,994.58
2017,04,07,01,18,994.62
2017,04,07,01,19,994.58
2017,04,07,01,20,994.55
2017,04,07,01,21,994.52
2017,04,07,01,22,994.48
2017,04,07,01,23,994.45
2017,04,07,01,24,994.41
2017,04,07,01,25,994.41
2017,04,07,01,26,994.38
2017,04,07,01,27,994.31
2017,04,07,01,28,994.24
2017,04,07,01,29,994.24
2017,04,07,01,30,994.18
2017,04,07,01,31,994.18
2017,04,07,01,32,994.11
2017,04,07,01,33,994.14
2017,04,07,01,34,994.07
2017,04,07,01,35,994.07
2017,04,07,01,36,994.07
2017,04,07,01,37,994.07
2017,04,07,01,38,994.04
2017,04,07,01,39,993.95
2017,04,07,01,40,993.87
2017,04,07,01,41,993.87
2017,04,07,01,42,993.87
2017,04,07,01,43,993.87
2017,04,07,01,44,993.84
2017,04,07,01,45,993.80
2017,04,07,01,46,993.80
2017,04,07,01,47,993.77
2017,04,07,01,48,993.77
2017,04,07,01,49,993.70
2017,04,07,01,50,993.67
2017,04,07,01,51,993.63
2017,04,07,01,52,993.60
2017,04,07,01,53,993.53
2017,04,07,01,54,993.47
2017,04,07,01,55,993.43
2017,04,07,01,56,993.40
2017,04,07,01,57,993.33
2017,04,07,01,58,993.26
2017,04,07,01,59,993.19
2017,04,07,02,00,993.23
2017,04,07,02,01,993.23
2017,04,07,02,02,993.23
2017,04,07,02,03,993.23
2017,04,07,02,04,993.16
2017,04,07,02,05,993.09
2017,04,07,02,06,993.06
2017,04,07,02,07,993.03
2017,04,07,02,08,993.06
2017,04,07,02,09,993.03
2017,04,07,02,10,992.96
2017,04,07,02,11,992.92
2017,04,07,02,12,992.83
2017,04,07,02,13,992.72
2017,04,07,02,14,992.72
2017,04,07,02,15,992.69
2017,04,07,02,16,992.69
2017,04,07,02,17,992.65
2017,04,07,02,18,992.62
2017,04,07,02,19,992.65
2017,04,07,02,20,992.62
2017,04,07,02,21,992.55
2017,04,07,02,22,992.52
2017,04,07,02,23,992.48
2017,04,07,02,24,992.42
2017,04,07,02,25,992.38
2017,04,07,02,26,992.29
2017,04,07,02,27,992.21
2017,04,07,02,28,992.14
2017,04,07,02,29,992.08
2017,04,07,02,30,991.98
2017,04,07,02,31,991.91
2017,04,07,02,32,991.87
2017,04,07,02,33,991.84
2017,04,07,02,34,991.84
2017,04,07,02,35,991.71
2017,04,07,02,36,991.67
2017,04,07,02,37,991.60
2017,04,07,02,38,991.51
2017,04,07,02,39,991.43
2017,04,07,02,40,991.43
2017,04,07,02,41,991.40
2017,04,07,02,42,991.37
2017,04,07,02,43,991.40
2017,04,07,02,44,991.33
2017,04,07,02,45,991.33
2017,04,07,02,46,991.26
2017,04,07,02,47,991.26
2017,04,07,02,48,991.23
2017,04,07,02,49,991.23
2017,04,07,02,50,991.13
2017,04,07,02,51,991.03
2017,04,07,02,52,991.03
2017,04,07,02,53,990.99
2017,04,07,02,54,990.93
2017,04,07,02,55,990.96
2017,04,07,02,56,990.99
2017,04,07,02,57,990.99
2017,04,07,02,58,990.96
2017,04,07,02,59,990.93
2017,04,07,03,00,990.83
2017,04,07,03,01,990.86
2017,04,07,03,02,990.73
2017,04,07,03,03,990.69
2017,04,07,03,04,990.69
2017,04,07,03,05,990.69
2017,04,07,03,06,990.65
2017,04,07,03,07,990.65
2017,04,07,03,08,990.65
2017,04,07,03,09,990.62
2017,04,07,03,10,990.59
2017,04,07,03,11,990.59
2017,04,07,03,12,990.59
2017,04,07,03,13,990.52
2017,04,07,03,14,990.59
2017,04,07,03,15,990.52
2017,04,07,03,16,990.52
2017,04,07,03,17,990.49
2017,04,07,03,18,990.52
2017,04,07,03,19,990.42
2017,04,07,03,20,990.38
2017,04,07,03,21,990.38
2017,04,07,03,22,990.32
2017,04,07,03,23,990.25
2017,04,07,03,24,990.18
2017,04,07,03,25,990.15
2017,04,07,03,26,990.08
2017,04,07,03,27,989.94
2017,04,07,03,28,989.94
2017,04,07,03,29,989.91
2017,04,07,03,30,989.84
2017,04,07,03,31,989.84
2017,04,07,03,32,989.88
2017,04,07,03,33,989.84
2017,04,07,03,34,989.84
2017,04,07,03,35,989.84
2017,04,07,03,36,989.88
2017,04,07,03,37,989.91
2017,04,07,03,38,989.98
2017,04,07,03,39,989.91
2017,04,07,03,40,989.88
2017,04,07,03,41,989.84
2017,04,07,03,42,989.84
2017,04,07,03,43,989.84
2017,04,07,03,44,989.81
2017,04,07,03,45,989.81
2017,04,07,03,46,989.77
2017,04,07,03,47,989.77
2017,04,07,03,48,989.74
2017,04,07,03,49,989.74
2017,04,07,03,50,989.77
2017,04,07,03,51,989.74
2017,04,07,03,52,989.74
2017,04,07,03,53,989.67
2017,04,07,03,54,989.67
2017,04,07,03,55,989.64
2017,04,07,03,56,989.60
2017,04,07,03,57,989.57
2017,04,07,03,58,989.57
2017,04,07,03,59,989.50
2017,04,07,04,00,989.47
2017,04,07,04,01,989.47
2017,04,07,04,02,989.40
2017,04,07,04,03,989.37
2017,04,07,04,04,989.33
2017,04,07,04,05,989.27
2017,04,07,04,06,989.27
2017,04,07,04,07,989.23
2017,04,07,04,08,989.20
2017,04,07,04,09,989.16
2017,04,07,04,10,989.10
2017,04,07,04,11,989.16
2017,04,07,04,12,989.16
2017,04,07,04,13,989.13
2017,04,07,04,14,989.16
2017,04,07,04,15,989.13
2017,04,07,04,16,989.16
2017,04,07,04,17,989.16
2017,04,07,04,18,989.16
2017,04,07,04,19,989.20
2017,04,07,04,20,989.23
2017,04,07,04,21,989.27
2017,04,07,04,22,989.27
2017,04,07,04,23,989.27
2017,04,07,04,24,989.30
2017,04,07,04,25,989.30
2017,04,07,04,26,989.24
2017,04,07,04,27,989.27
2017,04,07,04,28,989.20
2017,04,07,04,29,989.16
2017,04,07,04,30,989.13
2017,04,07,04,31,989.16
2017,04,07,04,32,989.20
2017,04,07,04,33,989.23
2017,04,07,04,34,989.33
2017,04,07,04,35,989.37
2017,04,07,04,36,989.40
2017,04,07,04,37,989.37
2017,04,07,04,38,989.44
2017,04,07,04,39,989.44
2017,04,07,04,40,989.47
2017,04,07,04,41,989.44
2017,04,07,04,42,989.44
2017,04,07,04,43,989.44
2017,04,07,04,44,989.47
2017,04,07,04,45,989.47
2017,04,07,04,46,989.44
2017,04,07,04,47,989.47
2017,04,07,04,48,989.44
2017,04,07,04,49,989.47
2017,04,07,04,50,989.47
2017,04,07,04,51,989.47
2017,04,07,04,52,989.47
2017,04,07,04,53,989.47
2017,04,07,04,54,989.50
2017,04,07,04,55,989.50
2017,04,07,04,56,989.54
2017,04,07,04,57,989.54
2017,04,07,04,58,989.50
2017,04,07,04,59,989.47
2017,04,07,05,00,989.47
2017,04,07,05,01,989.47
2017,04,07,05,02,989.44
2017,04,07,05,03,989.40
2017,04,07,05,04,989.47
2017,04,07,05,05,989.44
2017,04,07,05,06,989.47
2017,04,07,05,07,989.50
2017,04,07,05,08,989.50
2017,04,07,05,09,989.50
2017,04,07,05,10,989.50
2017,04,07,05,11,989.54
2017,04,07,05,12,989.50
2017,04,07,05,13,989.54
2017,04,07,05,14,989.54
2017,04,07,05,15,989.50
2017,04,07,05,16,989.50
2017,04,07,05,17,989.50
2017,04,07,05,18,989.54
2017,04,07,05,19,989.50
2017,04,07,05,20,989.47
2017,04,07,05,21,989.44
2017,04,07,05,22,989.37
2017,04,07,05,23,989.33
2017,04,07,05,24,989.28
2017,04,07,05,25,989.27
2017,04,07,05,26,989.20
2017,04,07,05,27,989.16
2017,04,07,05,28,989.16
2017,04,07,05,29,989.16
2017,04,07,05,30,989.16
2017,04,07,05,31,989.16
2017,04,07,05,32,989.16
2017,04,07,05,33,989.16
2017,04,07,05,34,989.20
2017,04,07,05,35,989.27
2017,04,07,05,36,989.23
2017,04,07,05,37,989.16
2017,04,07,05,38,989.13
2017,04,07,05,39,989.16
2017,04,07,05,40,989.13
2017,04,07,05,41,989.16
2017,04,07,05,42,989.10
2017,04,07,05,43,989.06
2017,04,07,05,44,989.03
2017,04,07,05,45,989.03
2017,04,07,05,46,989.00
2017,04,07,05,47,988.93
2017,04,07,05,48,988.86
2017,04,07,05,49,988.86
2017,04,07,05,50,988.83
2017,04,07,05,51,988.79
2017,04,07,05,52,988.76
2017,04,07,05,53,988.76
2017,04,07,05,54,988.76
2017,04,07,05,55,988.76
2017,04,07,05,56,988.83
2017,04,07,05,57,988.83
2017,04,07,05,58,988.95
2017,04,07,05,59,989.00
2017,04,07,06,00,989.09
2017,04,07,06,01,989.06
2017,04,07,06,02,989.06
2017,04,07,06,03,989.13
2017,04,07,06,04,989.10
2017,04,07,06,05,989.10
2017,04,07,06,06,989.10
2017,04,07,06,07,989.10
2017,04,07,06,08,989.03
2017,04,07,06,09,989.00
2017,04,07,06,10,988.87
2017,04,07,06,11,988.83
2017,04,07,06,12,988.83
2017,04,07,06,13,988.77
2017,04,07,06,14,988.79
2017,04,07,06,15,988.79
2017,04,07,06,16,988.79
2017,04,07,06,17,988.83
2017,04,07,06,18,988.79
2017,04,07,06,19,988.86
2017,04,07,06,20,988.83
2017,04,07,06,21,988.86
2017,04,07,06,22,988.83
2017,04,07,06,23,988.89
2017,04,07,06,24,988.86
2017,04,07,06,25,988.86
2017,04,07,06,26,988.89
2017,04,07,06,27,988.86
2017,04,07,06,28,988.89
2017,04,07,06,29,988.89
2017,04,07,06,30,988.93
2017,04,07,06,31,988.96
2017,04,07,06,32,989.03
2017,04,07,06,33,989.03
2017,04,07,06,34,989.03
2017,04,07,06,35,989.12
2017,04,07,06,36,989.16
2017,04,07,06,37,989.20
2017,04,07,06,38,989.16
2017,04,07,06,39,989.20
2017,04,07,06,40,989.16
2017,04,07,06,41,989.13
2017,04,07,06,42,989.10
2017,04,07,06,43,989.10
2017,04,07,06,44,989.06
2017,04,07,06,45,989.06
2017,04,07,06,46,989.01
2017,04,07,06,47,989.06
2017,04,07,06,48,989.06
2017,04,07,06,49,989.00
2017,04,07,06,50,988.96
2017,04,07,06,51,988.89
2017,04,07,06,52,988.89
2017,04,07,06,53,988.86
2017,04,07,06,54,988.83
2017,04,07,06,55,988.83
2017,04,07,06,56,988.83
2017,04,07,06,57,988.86
2017,04,07,06,58,988.79
2017,04,07,06,59,988.76
2017,04,07,07,00,988.70
2017,04,07,07,01,988.72
2017,04,07,07,02,988.66
2017,04,07,07,03,988.66
2017,04,07,07,04,988.66
2017,04,07,07,05,988.59
2017,04,07,07,06,988.52
2017,04,07,07,07,988.45
2017,04,07,07,08,988.42
2017,04,07,07,09,988.42
2017,04,07,07,10,988.42
2017,04,07,07,11,988.45
2017,04,07,07,12,988.45
2017,04,07,07,13,988.52
2017,04,07,07,14,988.55
2017,04,07,07,15,988.55
2017,04,07,07,16,988.55
2017,04,07,07,17,988.52
2017,04,07,07,18,988.52
2017,04,07,07,19,988.49
2017,04,07,07,20,988.52
2017,04,07,07,21,988.49
2017,04,07,07,22,988.49
2017,04,07,07,23,988.49
2017,04,07,07,24,988.55
2017,04,07,07,25,988.55
2017,04,07,07,26,988.55
2017,04,07,07,27,988.55
2017,04,07,07,28,988.55
2017,04,07,07,29,988.55
2017,04,07,07,30,988.52
2017,04,07,07,31,988.52
2017,04,07,07,32,988.55
2017,04,07,07,33,988.59
2017,04,07,07,34,988.59
2017,04,07,07,35,988.52
2017,04,07,07,36,988.55
2017,04,07,07,37,988.49
2017,04,07,07,38,988.49
2017,04,07,07,39,988.45
2017,04,07,07,40,988.42
2017,04,07,07,41,988.39
2017,04,07,07,42,988.42
2017,04,07,07,43,988.39
2017,04,07,07,44,988.39
2017,04,07,07,45,988.42
2017,04,07,07,46,988.42
2017,04,07,07,47,988.39
2017,04,07,07,48,988.35
2017,04,07,07,49,988.32
2017,04,07,07,50,988.32
2017,04,07,07,51,988.32
2017,04,07,07,52,988.32
2017,04,07,07,53,988.32
2017,04,07,07,54,988.32
2017,04,07,07,55,988.32
2017,04,07,07,56,988.28
2017,04,07,07,57,988.32
2017,04,07,07,58,988.35
2017,04,07,07,59,988.39
2017,04,07,08,00,988.39
2017,04,07,08,01,988.42
2017,04,07,08,02,988.42
2017,04,07,08,03,988.45
2017,04,07,08,04,988.45
2017,04,07,08,05,988.42
2017,04,07,08,06,988.39
2017,04,07,08,07,988.35
2017,04,07,08,08,988.32
2017,04,07,08,09,988.35
2017,04,07,08,10,988.32
2017,04,07,08,11,988.35
2017,04,07,08,12,988.35
2017,04,07,08,13,988.35
2017,04,07,08,14,988.35
2017,04,07,08,15,988.35
2017,04,07,08,16,988.35
2017,04,07,08,17,988.39
2017,04,07,08,18,988.42
2017,04,07,08,19,988.42
2017,04,07,08,20,988.42
2017,04,07,08,21,988.42
2017,04,07,08,22,988.39
2017,04,07,08,23,988.35
2017,04,07,08,24,988.32
2017,04,07,08,25,988.28
2017,04,07,08,26,988.25
2017,04,07,08,27,988.25
2017,04,07,08,28,988.28
2017,04,07,08,29,988.32
2017,04,07,08,30,988.35
2017,04,07,08,31,988.39
2017,04,07,08,32,988.42
2017,04,07,08,33,988.35
2017,04,07,08,34,988.35
2017,04,07,08,35,988.32
2017,04,07,08,36,988.28
2017,04,07,08,37,988.25
2017,04,07,08,38,988.25
2017,04,07,08,39,988.25
2017,04,07,08,40,988.25
2017,04,07,08,41,988.25
2017,04,07,08,42,988.25
2017,04,07,08,43,988.25
2017,04,07,08,44,988.28
2017,04,07,08,45,988.25
2017,04,07,08,46,988.28
2017,04,07,08,47,988.25
2017,04,07,08,48,988.25
2017,04,07,08,49,988.25
2017,04,07,08,50,988.18
2017,04,07,08,51,988.22
2017,04,07,08,52,988.18
2017,04,07,08,53,988.18
2017,04,07,08,54,988.22
2017,04,07,08,55,988.18
2017,04,07,08,56,988.18
2017,04,07,08,57,988.25
2017,04,07,08,58,988.25
2017,04,07,08,59,988.22
2017,04,07,09,00,988.18
2017,04,07,09,01,988.22
2017,04,07,09,02,988.18
2017,04,07,09,03,988.22
2017,04,07,09,04,988.18
2017,04,07,09,05,988.15
2017,04,07,09,06,988.15
2017,04,07,09,07,988.11
2017,04,07,09,08,988.11
2017,04,07,09,09,988.08
2017,04,07,09,10,988.08
2017,04,07,09,11,988.05
2017,04,07,09,12,988.05
2017,04,07,09,13,988.05
2017,04,07,09,14,988.05
2017,04,07,09,15,988.05
2017,04,07,09,16,988.05
2017,04,07,09,17,988.05
2017,04,07,09,18,988.05
2017,04,07,09,19,988.05
2017,04,07,09,20,988.01
2017,04,07,09,21,988.01
2017,04,07,09,22,988.05
2017,04,07,09,23,988.05
2017,04,07,09,24,988.01
2017,04,07,09,25,987.98
2017,04,07,09,26,987.98
2017,04,07,09,27,987.95
2017,04,07,09,28,987.98
2017,04,07,09,29,987.95
2017,04,07,09,30,987.98
2017,04,07,09,31,988.01
2017,04,07,09,32,988.01
2017,04,07,09,33,988.10
2017,04,07,09,34,988.08
2017,04,07,09,35,988.08
2017,04,07,09,36,988.08
2017,04,07,09,37,988.05
2017,04,07,09,38,988.08
2017,04,07,09,39,988.05
2017,04,07,09,40,988.05
2017,04,07,09,41,988.08
2017,04,07,09,42,988.08
2017,04,07,09,43,988.11
2017,04,07,09,44,988.11
2017,04,07,09,45,988.15
2017,04,07,09,46,988.18
2017,04,07,09,47,988.11
2017,04,07,09,48,988.05
2017,04,07,09,49,988.01
2017,04,07,09,50,988.01
2017,04,07,09,51,988.05
2017,04,07,09,52,988.08
2017,04,07,09,53,988.08
2017,04,07,09,54,988.05
2017,04,07,09,55,988.08
2017,04,07,09,56,988.08
2017,04,07,09,57,988.05
2017,04,07,09,58,988.01
2017,04,07,09,59,987.95
2017,04,07,10,00,987.88
2017,04,07,10,01,987.91
2017,04,07,10,02,987.88
2017,04,07,10,03,987.88
2017,04,07,10,04,987.91
2017,04,07,10,05,987.88
2017,04,07,10,06,987.88
2017,04,07,10,07,987.91
2017,04,07,10,08,987.91
2017,04,07,10,09,988.01
2017,04,07,10,10,987.98
2017,04,07,10,11,987.98
2017,04,07,10,12,988.01
2017,04,07,10,13,988.01
2017,04,07,10,14,987.98
2017,04,07,10,15,987.98
2017,04,07,10,16,988.01
2017,04,07,10,17,988.01
2017,04,07,10,18,987.96
2017,04,07,10,19,987.98
2017,04,07,10,20,987.98
2017,04,07,10,21,987.98
2017,04,07,10,22,988.04
2017,04,07,10,23,987.98
2017,04,07,10,24,988.05
2017,04,07,10,25,988.05
2017,04,07,10,26,988.11
2017,04,07,10,27,988.11
2017,04,07,10,28,988.15
2017,04,07,10,29,988.11
2017,04,07,10,30,988.15
2017,04,07,10,31,988.11
2017,04,07,10,32,988.08
2017,04,07,10,33,988.08
2017,04,07,10,34,988.11
2017,04,07,10,35,988.08
2017,04,07,10,36,988.11
2017,04,07,10,37,988.08
2017,04,07,10,38,988.15
2017,04,07,10,39,988.18
2017,04,07,10,40,988.25
2017,04,07,10,41,988.16
2017,04,07,10,42,988.22
2017,04,07,10,43,988.22
2017,04,07,10,44,988.25
2017,04,07,10,45,988.28
2017,04,07,10,46,988.28
2017,04,07,10,47,988.32
2017,04,07,10,48,988.28
2017,04,07,10,49,988.28
2017,04,07,10,50,988.35
2017,04,07,10,51,988.32
2017,04,07,10,52,988.35
2017,04,07,10,53,988.39
2017,04,07,10,54,988.42
2017,04,07,10,55,988.49
2017,04,07,10,56,988.45
2017,04,07,10,57,988.52
2017,04,07,10,58,988.55
2017,04,07,10,59,988.52
2017,04,07,11,00,988.52
2017,04,07,11,01,988.52
2017,04,07,11,02,988.45
2017,04,07,11,03,988.45
2017,04,07,11,04,988.49
2017,04,07,11,05,988.49
2017,04,07,11,06,988.52
2017,04,07,11,07,988.55
2017,04,07,11,08,988.52
2017,04,07,11,09,988.55
2017,04,07,11,10,988.55
2017,04,07,11,11,988.52
2017,04,07,11,12,988.49
2017,04,07,11,13,988.55
2017,04,07,11,14,988.52
2017,04,07,11,15,988.52
2017,04,07,11,16,988.45
2017,04,07,11,17,988.45
2017,04,07,11,18,988.40
2017,04,07,11,19,988.42
2017,04,07,11,20,988.42
2017,04,07,11,21,988.39
2017,04,07,11,22,988.32
2017,04,07,11,23,988.41
2017,04,07,11,24,988.42
2017,04,07,11,25,988.39
2017,04,07,11,26,988.45
2017,04,07,11,27,988.39
2017,04,07,11,28,988.44
2017,04,07,11,29,988.39
2017,04,07,11,30,988.45
2017,04,07,11,31,988.42
2017,04,07,11,32,988.42
2017,04,07,11,33,988.39
2017,04,07,11,34,988.45
2017,04,07,11,35,988.39
2017,04,07,11,36,988.45
2017,04,07,11,37,988.49
2017,04,07,11,38,988.45
2017,04,07,11,39,988.49
2017,04,07,11,40,988.49
2017,04,07,11,41,988.45
2017,04,07,11,42,988.49
2017,04,07,11,43,988.49
2017,04,07,11,44,988.45
2017,04,07,11,45,988.45
2017,04,07,11,46,988.45
2017,04,07,11,47,988.45
2017,04,07,11,48,988.45
2017,04,07,11,49,988.42
2017,04,07,11,50,988.42
2017,04,07,11,51,988.42
2017,04,07,11,52,988.45
2017,04,07,11,53,988.45
2017,04,07,11,54,988.45
2017,04,07,11,55,988.45
2017,04,07,11,56,988.45
2017,04,07,11,57,988.42
2017,04,07,11,58,988.39
2017,04,07,11,59,988.42
2017,04,07,12,00,988.39
2017,04,07,12,01,988.39
2017,04,07,12,02,988.39
2017,04,07,12,03,988.39
2017,04,07,12,04,988.39
2017,04,07,12,05,988.39
2017,04,07,12,06,988.39
2017,04,07,12,07,988.39
2017,04,07,12,08,988.35
2017,04,07,12,09,988.35
2017,04,07,12,10,988.35
2017,04,07,12,11,988.35
2017,04,07,12,12,988.45
2017,04,07,12,13,988.39
2017,04,07,12,14,988.45
2017,04,07,12,15,988.42
2017,04,07,12,16,988.45
2017,04,07,12,17,988.49
2017,04,07,12,18,988.52
2017,04,07,12,19,988.43
2017,04,07,12,20,988.45
2017,04,07,12,21,988.45
2017,04,07,12,22,988.49
2017,04,07,12,23,988.45
2017,04,07,12,24,988.49
2017,04,07,12,25,988.45
2017,04,07,12,26,988.49
2017,04,07,12,27,988.49
2017,04,07,12,28,988.43
2017,04,07,12,29,988.52
2017,04,07,12,30,988.49
2017,04,07,12,31,988.45
2017,04,07,12,32,988.45
2017,04,07,12,33,988.45
2017,04,07,12,34,988.42
2017,04,07,12,35,988.45
2017,04,07,12,36,988.45
2017,04,07,12,37,988.45
2017,04,07,12,38,988.45
2017,04,07,12,39,988.45
2017,04,07,12,40,988.45
2017,04,07,12,41,988.45
2017,04,07,12,42,988.45
2017,04,07,12,43,988.45
2017,04,07,12,44,988.45
2017,04,07,12,45,988.45
2017,04,07,12,46,988.49
2017,04,07,12,47,988.45
2017,04,07,12,48,988.52
2017,04,07,12,49,988.52
2017,04,07,12,50,988.52
2017,04,07,12,51,988.49
2017,04,07,12,52,988.49
2017,04,07,12,53,988.45
2017,04,07,12,54,988.42
2017,04,07,12,55,988.48
2017,04,07,12,56,988.52
2017,04,07,12,57,988.52
2017,04,07,12,58,988.52
2017,04,07,12,59,988.52
2017,04,07,13,00,988.49
2017,04,07,13,01,988.49
2017,04,07,13,02,988.52
2017,04,07,13,03,988.52
2017,04,07,13,04,988.52
2017,04,07,13,05,988.52
2017,04,07,13,06,988.52
2017,04,07,13,07,988.49
2017,04,07,13,08,988.49
2017,04,07,13,09,988.45
2017,04,07,13,10,988.45
2017,04,07,13,11,988.45
2017,04,07,13,12,988.49
2017,04,07,13,13,988.49
2017,04,07,13,14,988.49
2017,04,07,13,15,988.52
2017,04,07,13,16,988.55
2017,04,07,13,17,988.55
2017,04,07,13,18,988.52
2017,04,07,13,19,988.52
2017,04,07,13,20,988.52
2017,04,07,13,21,988.49
2017,04,07,13,22,988.49
2017,04,07,13,23,988.52
2017,04,07,13,24,988.49
2017,04,07,13,25,988.49
2017,04,07,13,26,988.42
2017,04,07,13,27,988.45
2017,04,07,13,28,988.45
2017,04,07,13,29,988.49
2017,04,07,13,30,988.49
2017,04,07,13,31,988.49
2017,04,07,13,32,988.52
2017,04,07,13,33,988.49
2017,04,07,13,34,988.52
2017,04,07,13,35,988.52
2017,04,07,13,36,988.55
2017,04,07,13,37,988.59
2017,04,07,13,38,988.59
2017,04,07,13,39,988.59
2017,04,07,13,40,988.55
2017,04,07,13,41,988.59
2017,04,07,13,42,988.59
2017,04,07,13,43,988.62
2017,04,07,13,44,988.62
2017,04,07,13,45,988.59
2017,04,07,13,46,988.65
2017,04,07,13,47,988.59
2017,04,07,13,48,988.59
2017,04,07,13,49,988.55
2017,04,07,13,50,988.52
2017,04,07,13,51,988.49
2017,04,07,13,52,988.45
2017,04,07,13,53,988.45
2017,04,07,13,54,988.49
2017,04,07,13,55,988.52
2017,04,07,13,56,988.55
2017,04,07,13,57,988.55
2017,04,07,13,58,988.52
2017,04,07,13,59,988.52
2017,04,07,14,00,988.58
2017,04,07,14,01,988.59
2017,04,07,14,02,988.59
2017,04,07,14,03,988.62
2017,04,07,14,04,988.68
2017,04,07,14,05,988.66
2017,04,07,14,06,988.66
2017,04,07,14,07,988.66
2017,04,07,14,08,988.62
2017,04,07,14,09,988.66
2017,04,07,14,10,988.66
2017,04,07,14,11,988.69
2017,04,07,14,12,988.66
2017,04,07,14,13,988.66
2017,04,07,14,14,988.66
2017,04,07,14,15,988.75
2017,04,07,14,16,988.72
2017,04,07,14,17,988.76
2017,04,07,14,18,988.79
2017,04,07,14,19,988.83
2017,04,07,14,20,988.83
2017,04,07,14,21,988.83
2017,04,07,14,22,988.83
2017,04,07,14,23,988.79
2017,04,07,14,24,988.73
2017,04,07,14,25,988.72
2017,04,07,14,26,988.72
2017,04,07,14,27,988.76
2017,04,07,14,28,988.72
2017,04,07,14,29,988.78
2017,04,07,14,30,988.83
2017,04,07,14,31,988.86
2017,04,07,14,32,988.83
2017,04,07,14,33,988.86
2017,04,07,14,34,988.86
2017,04,07,14,35,988.86
2017,04,07,14,36,988.86
2017,04,07,14,37,988.89
2017,04,07,14,38,988.89
2017,04,07,14,39,988.89
2017,04,07,14,40,988.89
2017,04,07,14,41,988.93
2017,04,07,14,42,988.99
2017,04,07,14,43,988.96
2017,04,07,14,44,989.00
2017,04,07,14,45,989.00
2017,04,07,14,46,989.00
2017,04,07,14,47,989.00
2017,04,07,14,48,989.00
2017,04,07,14,49,989.00
2017,04,07,14,50,989.03
2017,04,07,14,51,989.03
2017,04,07,14,52,989.06
2017,04,07,14,53,989.06
2017,04,07,14,54,989.10
2017,04,07,14,55,989.10
2017,04,07,14,56,989.22
2017,04,07,14,57,989.27
2017,04,07,14,58,989.36
2017,04,07,14,59,989.40
2017,04,07,15,00,989.40
2017,04,07,15,01,989.34
2017,04,07,15,02,989.28
2017,04,07,15,03,989.17
2017,04,07,15,04,989.10
2017,04,07,15,05,989.20
2017,04,07,15,06,989.26
2017,04,07,15,07,989.30
2017,04,07,15,08,989.30
2017,04,07,15,09,989.24
2017,04,07,15,10,989.14
2017,04,07,15,11,989.13
2017,04,07,15,12,989.16
2017,04,07,15,13,989.16
2017,04,07,15,14,989.20
2017,04,07,15,15,989.20
2017,04,07,15,16,989.16
2017,04,07,15,17,989.23
2017,04,07,15,18,989.23
2017,04,07,15,19,989.20
2017,04,07,15,20,989.16
2017,04,07,15,21,989.20
2017,04,07,15,22,989.16
2017,04,07,15,23,989.16
2017,04,07,15,24,989.22
2017,04,07,15,25,989.27
2017,04,07,15,26,989.30
2017,04,07,15,27,989.36
2017,04,07,15,28,989.40
2017,04,07,15,29,989.40
2017,04,07,15,30,989.40
2017,04,07,15,31,989.37
2017,04,07,15,32,989.43
2017,04,07,15,33,989.40
2017,04,07,15,34,989.44
2017,04,07,15,35,989.47
2017,04,07,15,36,989.47
2017,04,07,15,37,989.44
2017,04,07,15,38,989.47
2017,04,07,15,39,989.50
2017,04,07,15,40,989.54
2017,04,07,15,41,989.59
2017,04,07,15,42,989.64
2017,04,07,15,43,989.64
2017,04,07,15,44,989.67
2017,04,07,15,45,989.61
2017,04,07,15,46,989.60
2017,04,07,15,47,989.67
2017,04,07,15,48,989.64
2017,04,07,15,49,989.64
2017,04,07,15,50,989.64
2017,04,07,15,51,989.64
2017,04,07,15,52,989.67
2017,04,07,15,53,989.67
2017,04,07,15,54,989.67
2017,04,07,15,55,989.64
2017,04,07,15,56,989.64
2017,04,07,15,57,989.60
2017,04,07,15,58,989.67
2017,04,07,15,59,989.73
2017,04,07,16,00,989.71
2017,04,07,16,01,989.65
2017,04,07,16,02,989.58
2017,04,07,16,03,989.51
2017,04,07,16,04,989.54
2017,04,07,16,05,989.50
2017,04,07,16,06,989.54
2017,04,07,16,07,989.50
2017,04,07,16,08,989.59
2017,04,07,16,09,989.60
2017,04,07,16,10,989.54
2017,04,07,16,11,989.59
2017,04,07,16,12,989.64
2017,04,07,16,13,989.60
2017,04,07,16,14,989.60
2017,04,07,16,15,989.64
2017,04,07,16,16,989.64
2017,04,07,16,17,989.60
2017,04,07,16,18,989.64
2017,04,07,16,19,989.60
2017,04,07,16,20,989.64
2017,04,07,16,21,989.64
2017,04,07,16,22,989.60
2017,04,07,16,23,989.60
2017,04,07,16,24,989.64
2017,04,07,16,25,989.73
2017,04,07,16,26,989.67
2017,04,07,16,27,989.67
2017,04,07,16,28,989.55
2017,04,07,16,29,989.59
2017,04,07,16,30,989.57
2017,04,07,16,31,989.63
2017,04,07,16,32,989.60
2017,04,07,16,33,989.57
2017,04,07,16,34,989.57
2017,04,07,16,35,989.63
2017,04,07,16,36,989.70